TimeCST,TemperatureF,Dew PointF,Humidity,Sea Level PressureIn,VisibilityMPH,Wind Direction,Wind SpeedMPH,Gust SpeedMPH,PrecipitationIn,Events,Conditions,WindDirDegrees,DateUTC
12:53 AM,37.9,23.0,55,30.43,10.0,Calm,Calm,-,N/A,,Clear,0,2012-11-24 06:53:00
1:53 AM,39.9,24.1,53,30.42,10.0,Calm,Calm,-,N/A,,Clear,0,2012-11-24 07:53:00
2:53 AM,37.0,24.1,59,30.42,10.0,Calm,Calm,-,N/A,,Clear,0,2012-11-24 08:53:00
3:53 AM,34.0,23.0,64,30.41,10.0,Calm,Calm,-,N/A,,Clear,0,2012-11-24 09:53:00
4:53 AM,34.0,23.0,64,30.40,10.0,Calm,Calm,-,N/A,,Clear,0,2012-11-24 10:53:00
5:53 AM,30.9,23.0,72,30.40,10.0,NW,3.5,-,N/A,,Clear,310,2012-11-24 11:53:00
6:53 AM,28.9,23.0,78,30.39,10.0,WSW,3.5,-,N/A,,Clear,250,2012-11-24 12:53:00
7:53 AM,32.0,25.0,75,30.41,10.0,Calm,Calm,-,N/A,,Clear,0,2012-11-24 13:53:00
8:53 AM,41.0,24.1,51,30.42,10.0,SSW,3.5,-,N/A,,Clear,200,2012-11-24 14:53:00
9:53 AM,46.0,23.0,40,30.40,10.0,South,8.1,-,N/A,,Clear,180,2012-11-24 15:53:00
10:53 AM,50.0,21.9,33,30.38,10.0,SSE,8.1,-,N/A,,Clear,150,2012-11-24 16:53:00
11:53 AM,53.1,21.0,29,30.33,10.0,SSE,8.1,-,N/A,,Clear,150,2012-11-24 17:53:00
12:53 PM,57.9,19.9,23,30.27,10.0,South,9.2,-,N/A,,Clear,190,2012-11-24 18:53:00
1:53 PM,60.1,18.0,20,30.22,10.0,SSE,10.4,-,N/A,,Clear,160,2012-11-24 19:53:00
2:53 PM,62.1,17.1,18,30.18,10.0,SSE,9.2,-,N/A,,Clear,160,2012-11-24 20:53:00
3:53 PM,63.0,17.1,17,30.15,10.0,SSE,13.8,-,N/A,,Clear,160,2012-11-24 21:53:00
4:53 PM,61.0,18.0,19,30.13,10.0,SSE,8.1,-,N/A,,Clear,160,2012-11-24 22:53:00
5:53 PM,55.0,18.0,23,30.12,10.0,SSE,6.9,-,N/A,,Clear,150,2012-11-24 23:53:00
6:53 PM,51.1,19.9,29,30.12,10.0,SSE,8.1,-,N/A,,Clear,150,2012-11-25 00:53:00
7:53 PM,51.1,21.0,31,30.12,10.0,SSE,11.5,-,N/A,,Clear,150,2012-11-25 01:53:00
8:53 PM,50.0,21.0,32,30.10,10.0,SSE,11.5,-,N/A,,Clear,150,2012-11-25 02:53:00
9:53 PM,48.0,19.9,33,30.08,10.0,SSE,13.8,-,N/A,,Clear,150,2012-11-25 03:53:00
10:53 PM,44.1,21.0,40,30.07,10.0,SE,10.4,-,N/A,,Clear,130,2012-11-25 04:53:00
11:53 PM,43.0,21.0,42,30.05,10.0,SE,11.5,-,N/A,,Clear,140,2012-11-25 05:53:00